This is the latest recevied weather packets stored in our database for station/object W2GRK-15. If no packets are shown the sender has not sent any weather packets the latest 10 day(s).
| Time | Temp. | Humidity | Pressure | Rain* | Wind** | Luminosity | Snow |
|---|---|---|---|---|---|---|---|
| 1777443867 | 11.67° C | 65% | 1017.7 hPa | 0 mm | - | 0 W/m² | - |
| 1777442836 | 11.67° C | 66% | 1018.4 hPa | 0 mm | - | 0 W/m² | - |
| 1777442610 | 11.67° C | 67% | 1018.3 hPa | 0 mm | - | 0 W/m² | - |
| 1777442546 | 11.67° C | 66% | 1018.3 hPa | 0 mm | - | 0 W/m² | - |
| 1777442240 | 11.67° C | 66% | 1018.2 hPa | 0 mm | - | 0 W/m² | - |
| 1777441886 | 11.67° C | 65% | 1018.4 hPa | 0 mm | - | 0 W/m² | - |
| 1777441821 | 11.67° C | 65% | 1018.4 hPa | 0 mm | - | 0 W/m² | - |
| 1777441757 | 11.67° C | 65% | 1018.6 hPa | 0 mm | - | 0 W/m² | - |
| 1777441728 | 11.67° C | 65% | 1018.3 hPa | 0 mm | - | 0 W/m² | - |
| 1777440871 | 12.22° C | 62% | 1018.8 hPa | 0 mm | - | 0 W/m² | - |
| 1777440742 | 12.22° C | 63% | 1018.9 hPa | 0 mm | - | 0 W/m² | - |
| 1777439663 | 12.22° C | 61% | 1018.8 hPa | 0 mm | - | 0 W/m² | - |
| 1777439180 | 12.22° C | 60% | 1018.8 hPa | 0 mm | - | 0 W/m² | - |
| 1777439087 | 12.22° C | 60% | 1019.2 hPa | 0 mm | - | 0 W/m² | - |
| 1777438737 | 12.22° C | 59% | 1019 hPa | 0 mm | - | 0 W/m² | - |
| 1777438230 | 12.22° C | 57% | 1019.2 hPa | 0 mm | - | 0 W/m² | - |
| 1777438101 | 12.22° C | 56% | 1019.2 hPa | 0 mm | - | 0 W/m² | - |
| 1777437377 | 12.22° C | 55% | 1019.2 hPa | 0 mm | - | 0 W/m² | - |
| 1777436958 | 12.78° C | 55% | 1019.2 hPa | 0 mm | - | 0 W/m² | - |
| 1777436910 | 12.78° C | 55% | 1019.2 hPa | 0 mm | - | 0 W/m² | - |
| 1777436846 | 12.22° C | 55% | 1019.3 hPa | 0 mm | - | 0 W/m² | - |
| 1777436668 | 12.22° C | 57% | 1019.3 hPa | 0 mm | - | 0 W/m² | - |
| 1777436491 | 12.22° C | 59% | 1019.3 hPa | 0 mm | - | 0 W/m² | - |
| 1777436427 | 12.22° C | 56% | 1019.3 hPa | 0 mm | - | 0 W/m² | - |
| 1777436298 | 12.22° C | 58% | 1019.3 hPa | 0 mm | - | 0 W/m² | - |
* Rain latest hour (hover to see other rain measurements)
** Current wind speed in m/s (hover to see current wind gust speed)